Location: Newark
(52.3735°N, 16.9806°E)
Time: 16:31:07
(UTC+00:00)

LilacSat-2 - Pass Details

Date: 05 December 2021
Orbit: 511 x 532 km, 97.5° (Epoch: 17 January)

Event Time Altitude Azimuth Distance (km) Brightness Sun altitude
Rises 04:50:42 0° 14° (NNE) 2,689 ? -16.4°
Reaches altitude 10° 04:52:50 10° 16° (NNE) 1,795 ? -16.1°
Maximum altitude 04:56:43 80° 103° (ESE) 549 ? -15.5°
Drops below altitude 10° 05:00:34 10° 191° (S) 1,783 ? -14.9°
Sets 05:02:41 0° 193° (SSW) 2,669 ? -14.6°
